Change the Weather History Date:

Thursday, February 2, 2012

  Actual Average Record
Temperature  
Mean Temperature 48 °F -  
Max Temperature 63 °F 50 °F 36 °F (2015)
Min Temperature 34 °F 28 °F 17 °F (2015)
Degree Days  
Heating Degree Days 16    
Moisture  
Dew Point 50 °F    
Average Humidity 81    
Maximum Humidity 100    
Minimum Humidity 63    
Precipitation  
Precipitation 0.00 in - - ()
Sea Level Pressure  
Sea Level Pressure 29.98 in    
Wind  
Wind Speed 11 mph (ESE)    
Max Wind Speed 23 mph    
Max Gust Speed 29 mph    
Visibility 10 miles    
Events      
Averages and records for this station are not official NWS values.
T = Trace of Precipitation, MM = Missing Value Source: NWS Daily Summary

Daily Weather History Graph

Daily Weather History Graph

Search for Another Location

Airport or City:

Trip Planner

Search our weather history database for the weather conditions in past years. The results will help you decide how hot, cold, wet, or windy it might be!

Date:

Astronomy

Feb. 02, 2012 Rise Set
Actual Time 7:34 AM CST 6:07 PM CST
Civil Twilight 7:08 AM CST 6:33 PM CST
Nautical Twilight 6:38 AM CST 7:03 PM CST
Astronomical Twilight 6:08 AM CST 7:33 PM CST
Moon 1:24 PM CST (2/2) 3:13 AM CST (2/2)
Length of Visible Light 11h 25m
Length of Day
10h 32m
Waxing Gibbous, 74% of the Moon is Illuminated
Feb 2
Waxing Gibbous
Feb 7
Full
Feb 14
Last Quarter
Feb 21
New
Feb 29
First Quarter

Hourly Weather History & Observations

Time (CST) Temp. Windchill Dew Point Humidity Pressure Visibility Wind Dir Wind Speed Gust Speed Precip Events Conditions
12:55 AM 40.1 °F 36.9 °F 34.0 °F 79% 30.16 in 10.0 mi NNE 4.6 mph - N/A   Clear
1:55 AM 38.1 °F 33.7 °F 33.4 °F 83% 30.15 in 10.0 mi NNE 5.8 mph - N/A   Clear
2:55 AM 41.4 °F 38.4 °F 33.4 °F 73% 30.14 in 10.0 mi North 4.6 mph - N/A   Clear
3:55 AM 35.8 °F 29.4 °F 31.5 °F 84% 30.14 in 10.0 mi NE 8.1 mph - N/A   Clear
4:55 AM 37.8 °F 33.3 °F 32.0 °F 80% 30.13 in 10.0 mi NNE 5.8 mph - N/A   Clear
5:55 AM 34.3 °F 31.4 °F 30.9 °F 87% 30.13 in 10.0 mi NNE 3.5 mph - N/A   Clear
6:55 AM 35.4 °F 30.5 °F 31.5 °F 85% 30.14 in 10.0 mi NE 5.8 mph - N/A   Clear
7:55 AM 35.6 °F 29.9 °F 32.4 °F 88% 30.14 in 10.0 mi NE 6.9 mph - N/A   Clear
8:55 AM 39.9 °F 37.8 °F 36.7 °F 88% 30.14 in 10.0 mi NE 3.5 mph - N/A   Clear
9:55 AM 48.2 °F - 41.2 °F 77% 30.13 in 10.0 mi East 5.8 mph - N/A   Clear
10:55 AM 55.4 °F - 42.8 °F 63% 30.11 in 10.0 mi ESE 13.8 mph - N/A   Clear
11:55 AM 58.1 °F - 46.8 °F 66% 30.08 in 10.0 mi SE 13.8 mph - N/A   Partly Cloudy
12:55 PM 59.9 °F - 49.3 °F 68% 30.02 in 10.0 mi ESE 16.1 mph - N/A   Clear
1:55 PM 60.8 °F - 51.1 °F 70% 29.97 in 10.0 mi ESE 17.3 mph - N/A   Partly Cloudy
2:37 PM 60.8 °F - 51.8 °F 72% 29.95 in 10.0 mi ESE 16.1 mph - N/A   Mostly Cloudy
2:42 PM 60.8 °F - 51.8 °F 72% 29.95 in 10.0 mi ESE 15.0 mph - N/A   Mostly Cloudy
2:55 PM 60.8 °F - 52.9 °F 75% 29.94 in 10.0 mi ESE 17.3 mph - N/A   Scattered Clouds
3:12 PM 60.8 °F - 53.6 °F 77% 29.94 in 10.0 mi ESE 17.3 mph - N/A   Mostly Cloudy
3:33 PM 62.6 °F - 53.6 °F 72% 29.92 in 10.0 mi SE 21.9 mph - N/A   Mostly Cloudy
3:55 PM 62.4 °F - 54.7 °F 76% 29.92 in 10.0 mi ESE 18.4 mph 26.5 mph N/A   Scattered Clouds
3:56 PM 62.6 °F - 55.4 °F 77% 29.93 in 10.0 mi ESE 20.7 mph 26.5 mph N/A   Mostly Cloudy
4:55 PM 63.1 °F - 55.6 °F 76% 29.91 in 10.0 mi ESE 17.3 mph - N/A   Mostly Cloudy
5:00 PM 62.6 °F - 55.4 °F 77% 29.90 in 10.0 mi ESE 16.1 mph - N/A   Overcast
5:13 PM 62.6 °F - 55.4 °F 77% 29.91 in 10.0 mi ESE 15.0 mph - N/A   Overcast
5:20 PM 62.6 °F - 55.4 °F 77% 29.91 in 10.0 mi ESE 15.0 mph - N/A   Overcast
5:34 PM 62.6 °F - 55.4 °F 77% 29.90 in 10.0 mi ESE 16.1 mph - N/A   Overcast
5:55 PM 62.8 °F - 56.5 °F 80% 29.90 in 10.0 mi ESE 13.8 mph - N/A   Mostly Cloudy
6:08 PM 62.6 °F - 57.2 °F 82% 29.91 in 10.0 mi ESE 17.3 mph - N/A   Overcast
6:11 PM 62.6 °F - 57.2 °F 82% 29.91 in 10.0 mi ESE 16.1 mph - N/A   Overcast
6:21 PM 62.6 °F - 57.2 °F 82% 29.91 in 10.0 mi ESE 15.0 mph - N/A   Overcast
6:55 PM 62.4 °F - 57.6 °F 84% 29.91 in 10.0 mi SE 19.6 mph - N/A   Overcast
7:35 PM 60.8 °F - 57.2 °F 88% 29.90 in 10.0 mi ESE 17.3 mph - N/A   Mostly Cloudy
7:55 PM 61.2 °F - 57.7 °F 88% 29.90 in 10.0 mi ESE 18.4 mph - N/A   Overcast
8:16 PM 60.8 °F - 57.2 °F 88% 29.91 in 10.0 mi ESE 19.6 mph - N/A   Overcast
8:31 PM 60.8 °F - 57.2 °F 88% 29.90 in 10.0 mi ESE 18.4 mph - N/A   Overcast
8:55 PM 61.2 °F - 58.3 °F 90% 29.90 in 10.0 mi SE 19.6 mph - N/A   Overcast
8:58 PM 60.8 °F - 59.0 °F 94% 29.90 in 10.0 mi SE 18.4 mph - N/A   Overcast
9:55 PM 60.8 °F - 59.0 °F 94% 29.90 in 10.0 mi SE 17.3 mph 26.5 mph N/A   Overcast
10:40 PM 60.8 °F - 60.8 °F 100% 29.88 in 7.0 mi SE 21.9 mph 26.5 mph N/A   Overcast
10:55 PM 60.6 °F - 60.3 °F 99% 29.88 in 7.0 mi SSE 20.7 mph - N/A   Overcast
11:55 PM 61.3 °F - 61.0 °F 99% 29.86 in 7.0 mi SSE 23.0 mph 28.8 mph N/A   Overcast